[[{"header":{"parameterUnit":"m.s-1","parameterCategory":1,"la1":30.2991,"la2":30.254,"lo1":-89.0895,"lo2":-89.0444,"dy":0.0017,"dx":0.0017,"nx":28,"ny":28,"refTime":"2024-06-02T03:00:00:Z","depth":0,"parameterNumber":2,"parameterNumberName":"U-component_of_WINDS"},"data":[0,0,0,0,0,0,0,0,0,0,0,0,0,0,0,0,0,0,0,0,0,0,0,0,0,0,0,0,0,0,0,0,0,0,0,0,0,0,0,0,0,0,0,0,0,0,0,0,0,0,0,0,0,0,0,0,0,0,-0.8583,-0.8583,0,-0.8567,-0.8567,-0.8567,-0.8543,-0.8543,-0.8542,-0.8542,-0.8526,-0.8526,-0.8526,0,0,0,0,0,0,0,0,0,0,0,0,0,-0.8594,-0.8594,-0.8583,-0.8583,-0.8583,-0.8567,-0.8567,-0.8567,-0.8543,-0.8543,-0.8542,-0.8542,-0.8526,-0.8526,-0.8526,0,0,0,0,0,0,0,0,0,0,0,0,0,-0.8585,-0.8594,-0.8583,-0.8569,-0.8568,-0.8567,-0.8567,-0.8567,-0.8543,-0.8543,-0.8542,-0.8542,-0.8526,-0.8526,-0.8526,-0.8538,0,0,-0.8526,-0.8526,0,0,0,0,0,0,0,0,-0.8585,-0.8584,-0.8571,-0.857,-0.8568,-0.8557,-0.8565,-0.8557,-0.8544,-0.8553,-0.8542,-0.8541,-0.8537,-0.8536,-0.8534,-0.8537,-0.8537,-0.8526,-0.8526,-0.8526,-0.8526,0,0,0,0,0,0,0,-0.8586,-0.8585,-0.8577,-0.8571,-0.8569,-0.8564,-0.8562,-0.8563,-0.8548,-0.8552,-0.855,-0.8548,-0.8536,-0.8534,-0.8534,-0.8536,-0.8526,-0.8526,-0.8526,-0.8526,-0.8549,-0.855,0,0,0,0,0,0,-0.8589,-0.8586,-0.8577,-0.8576,-0.8576,-0.8564,-0.8562,-0.8561,-0.8548,-0.8546,-0.8549,-0.8547,-0.8535,-0.8534,-0.8533,-0.8547,-0.8526,-0.8526,-0.8526,-0.8549,-0.855,-0.855,0,0,0,0,0,0,-0.8589,-0.8588,-0.8578,-0.858,-0.8579,-0.8565,-0.8564,-0.8561,-0.8559,-0.8546,-0.8543,-0.855,-0.8534,-0.8533,-0.8537,-0.8546,-0.8526,-0.8526,-0.8548,-0.8549,-0.855,-0.8574,0,0,0,0,0,0,-0.8589,-0.8588,-0.8592,-0.8581,-0.8579,-0.8582,-0.8564,-0.8561,-0.8559,-0.8557,-0.8546,-0.8544,-0.8534,-0.8537,-0.8537,-0.8545,-0.8526,-0.8547,-0.8548,-0.855,-0.8572,-0.8575,-0.8578,0,0,0,0,0,-0.859,-0.86,-0.8593,-0.8592,-0.8584,-0.8582,-0.8581,-0.8569,-0.856,-0.8564,-0.8556,-0.8544,-0.8545,-0.8538,-0.8537,-0.8546,-0.8547,-0.8548,-0.8549,-0.8571,-0.8575,-0.8578,0,0,0,0,0,0,-0.8613,-0.8598,-0.859,-0.8596,-0.8591,-0.8579,-0.8583,-0.8573,-0.857,-0.8568,-0.8553,-0.8551,-0.8557,-0.8552,-0.8544,-0.8557,-0.8544,-0.8545,-0.856,-0.8564,-0.8567,-0.8568,-0.8526,0,0,0,0,0,-0.8618,-0.8619,-0.8606,-0.8613,-0.861,-0.8598,-0.8597,-0.8588,-0.8581,-0.8579,-0.8571,-0.8565,-0.8564,-0.8564,-0.8562,-0.8571,-0.8569,-0.8577,-0.858,-0.8583,-0.8584,-0.8589,-0.8592,-0.8555,-0.8555,-0.8555,0,0,-0.863,-0.8622,-0.8623,-0.8617,-0.8612,-0.8613,-0.8596,-0.8597,-0.8598,-0.8579,-0.8582,-0.8577,-0.857,-0.8576,-0.8579,-0.8572,-0.8594,-0.8584,-0.8587,-0.8586,-0.8591,-0.8594,-0.8598,-0.8556,-0.8556,-0.8556,0,0,-0.8652,-0.8646,-0.8651,-0.8647,-0.8639,-0.863,-0.8632,-0.8621,-0.8617,-0.862,-0.8606,-0.8607,-0.8605,-0.8601,-0.8599,-0.862,-0.861,-0.862,-0.8636,-0.8641,-0.8644,-0.8647,-0.8655,-0.8658,-0.8622,-0.8622,-0.8622,0,-0.8668,-0.8668,-0.8655,-0.8658,-0.8656,-0.8639,-0.8645,-0.8641,-0.8633,-0.8632,-0.8625,-0.8623,-0.8617,-0.8623,-0.8628,-0.8627,-0.8628,-0.8621,-0.8645,-0.8647,-0.8649,-0.8657,-0.866,-0.8623,-0.8623,-0.8623,-0.8623,0,-0.8688,-0.8689,-0.8694,-0.8687,-0.8686,-0.869,-0.8678,-0.8678,-0.867,-0.8662,-0.8666,-0.8658,-0.8655,-0.8656,-0.8648,-0.8661,-0.8657,-0.8647,-0.8634,-0.8654,-0.8661,-0.8664,-0.8625,-0.8624,-0.8624,-0.8624,0,0,-0.8723,-0.871,-0.8712,-0.8709,-0.87,-0.87,-0.8704,-0.8701,-0.8701,-0.8697,-0.87,-0.8699,-0.8691,-0.8688,-0.8679,-0.8684,-0.8702,-0.8673,-0.8673,-0.8679,-0.8717,-0.8724,-0.8727,-0.8695,-0.8696,-0.8696,-0.8717,0,-0.8744,-0.8749,-0.8738,-0.8746,-0.8746,-0.8731,-0.8735,-0.873,-0.8723,-0.8723,-0.8716,-0.8716,-0.8704,-0.8702,-0.8706,-0.8699,-0.8709,-0.8697,-0.8698,-0.8698,-0.87,-0.8731,-0.8738,-0.8759,-0.872,-0.872,-0.8721,0,-0.8768,-0.8765,-0.8773,-0.8764,-0.8764,-0.8767,-0.8763,-0.8764,-0.8758,-0.8753,-0.8751,-0.874,-0.8744,-0.8731,-0.8736,-0.8728,-0.8728,-0.8725,-0.8725,-0.8724,-0.871,-0.8731,-0.8765,-0.8768,-0.8725,-0.8724,-0.8724,0,-0.8793,-0.8791,-0.8795,-0.8793,-0.8783,-0.8786,-0.8781,-0.8775,-0.8774,-0.8771,-0.8771,-0.8769,-0.8767,-0.8766,-0.8756,-0.8748,-0.8762,-0.8749,-0.8758,-0.8759,-0.8762,-0.8762,-0.8796,-0.8762,-0.8762,-0.8762,-0.8762,0,-0.8816,-0.8822,-0.8807,-0.8809,-0.8816,-0.8803,-0.881,-0.8804,-0.8799,-0.8801,-0.8788,-0.879,-0.8776,-0.8777,-0.8769,-0.8775,-0.8774,-0.877,-0.8768,-0.8771,-0.8772,-0.8771,-0.8769,-0.8763,-0.8763,-0.8762,-0.8762,0,-0.8845,-0.8835,-0.8839,-0.8829,-0.8827,-0.8832,-0.8824,-0.8826,-0.8819,-0.8822,-0.8822,-0.8811,-0.8811,-0.8801,-0.8799,-0.8794,-0.8803,-0.8798,-0.8805,-0.8803,-0.8814,-0.8813,-0.8848,-0.8853,-0.8816,-0.8816,-0.8817,0,-0.8861,-0.8865,-0.8855,-0.8856,-0.8852,-0.8853,-0.8852,-0.884,-0.884,-0.8834,-0.8838,-0.8837,-0.8836,-0.8837,-0.8829,-0.8828,-0.8824,-0.8836,-0.8823,-0.8827,-0.8824,-0.8824,-0.8824,-0.8839,-0.8839,-0.884,-0.884,0,-0.8889,-0.8884,-0.8884,-0.8881,-0.8881,-0.8879,-0.8875,-0.8877,-0.8864,-0.8864,-0.8864,-0.8864,-0.8862,-0.8862,-0.8859,-0.8856,-0.8846,-0.8844,-0.8846,-0.885,-0.8853,-0.8852,-0.8812,-0.8843,-0.8843,-0.8843,-0.8842,-0.8842,-0.8912,-0.8915,-0.8909,-0.8909,-0.8906,-0.8903,-0.8905,-0.8899,-0.8899,-0.8897,-0.889,-0.8891,-0.8886,-0.8882,-0.8879,-0.8881,-0.8875,-0.8878,-0.8878,-0.8879,-0.8881,-0.8853,-0.888,-0.888,-0.888,-0.888,-0.888,0,-0.894,-0.8936,-0.8936,-0.8932,-0.8932,-0.8923,-0.892,-0.892,-0.8922,-0.8918,-0.8917,-0.8918,-0.8918,-0.891,-0.891,-0.8912,-0.8908,-0.8912,-0.8912,-0.8911,-0.8887,-0.8885,-0.8916,-0.8916,-0.8916,-0.8916,-0.8916,-0.8916,-0.8955,-0.896,-0.8955,-0.8958,-0.8954,-0.8955,-0.8954,-0.8952,-0.8949,-0.895,-0.895,-0.8945,-0.894,-0.8939,-0.8939,-0.8936,-0.8937,-0.8943,-0.8939,-0.8916,-0.8913,-0.891,-0.8908,-0.8943,-0.8943,-0.8963,-0.8964,-0.8964]},{"header":{"parameterUnit":"m.s-1","parameterCategory":1,"la1":30.2991,"la2":30.254,"lo1":-89.0895,"lo2":-89.0444,"dy":0.0017,"dx":0.0017,"nx":28,"ny":28,"refTime":"2024-06-02T03:00:00:Z","depth":0,"parameterNumber":3,"parameterNumberName":"V-component_of_WINDS"},"data":[0,0,0,0,0,0,0,0,0,0,0,0,0,0,0,0,0,0,0,0,0,0,0,0,0,0,0,0,0,0,0,0,0,0,0,0,0,0,0,0,0,0,0,0,0,0,0,0,0,0,0,0,0,0,0,0,0,0,1.6158,1.6159,0,1.6271,1.6273,1.6274,1.6254,1.6252,1.625,1.6248,1.6362,1.6366,1.6371,0,0,0,0,0,0,0,0,0,0,0,0,0,1.5921,1.5925,1.6158,1.616,1.6161,1.6271,1.6273,1.6274,1.6254,1.6252,1.6249,1.6247,1.636,1.6366,1.6372,0,0,0,0,0,0,0,0,0,0,0,0,0,1.6028,1.5927,1.6158,1.6164,1.6166,1.6271,1.6273,1.6275,1.6255,1.6252,1.6249,1.6246,1.6358,1.6365,1.6372,1.6477,0,0,1.6395,1.6398,0,0,0,0,0,0,0,0,1.6022,1.6037,1.6162,1.6164,1.6166,1.6245,1.6231,1.6342,1.6255,1.6221,1.6248,1.6244,1.6325,1.6335,1.6363,1.6483,1.6487,1.6395,1.64,1.6403,1.6405,0,0,0,0,0,0,0,1.6014,1.6032,1.6203,1.6164,1.6166,1.616,1.6172,1.6252,1.6288,1.6224,1.6223,1.6236,1.6326,1.6356,1.6365,1.6489,1.6395,1.6402,1.6406,1.6409,1.6698,1.6701,0,0,0,0,0,0,1.6005,1.6026,1.6199,1.6206,1.6085,1.6167,1.618,1.6223,1.6287,1.6294,1.6239,1.6235,1.6345,1.6357,1.6369,1.6495,1.6403,1.641,1.6414,1.6695,1.6699,1.6702,0,0,0,0,0,0,1.6,1.6021,1.6195,1.6116,1.6137,1.6174,1.6222,1.6227,1.6257,1.6299,1.6305,1.6263,1.6343,1.6359,1.645,1.6499,1.6413,1.642,1.6691,1.6696,1.6701,1.6748,0,0,0,0,0,0,1.5994,1.602,1.6061,1.6117,1.6142,1.6275,1.6225,1.6231,1.627,1.6266,1.6323,1.633,1.6342,1.6439,1.6457,1.6507,1.6425,1.6687,1.6693,1.6699,1.6742,1.6754,1.6764,0,0,0,0,0,1.5985,1.607,1.6063,1.6084,1.6194,1.6278,1.6292,1.6305,1.6274,1.6315,1.6341,1.6328,1.649,1.6449,1.6469,1.6522,1.6684,1.6691,1.6699,1.6738,1.6752,1.6764,0,0,0,0,0,0,1.6019,1.6077,1.6071,1.6176,1.6222,1.6275,1.6327,1.632,1.6376,1.6369,1.6382,1.6395,1.6487,1.6514,1.6466,1.6625,1.6582,1.6594,1.6605,1.6619,1.663,1.6621,1.6432,0,0,0,0,0,1.6038,1.6102,1.615,1.6238,1.6261,1.629,1.6327,1.6333,1.6381,1.64,1.6434,1.648,1.6541,1.6582,1.664,1.6746,1.6757,1.6792,1.6802,1.6811,1.6821,1.6877,1.6893,1.6727,1.6727,1.6726,0,0,1.6079,1.6119,1.6159,1.6246,1.6282,1.6347,1.6307,1.6378,1.6426,1.6411,1.6499,1.6525,1.6577,1.6676,1.6721,1.67,1.6869,1.6821,1.6827,1.6833,1.6886,1.6902,1.6916,1.6732,1.6731,1.673,0,0,1.6187,1.6225,1.6301,1.6339,1.6394,1.6412,1.6431,1.6484,1.6501,1.659,1.6579,1.6635,1.6741,1.6779,1.6811,1.6931,1.692,1.6949,1.7006,1.706,1.7073,1.7085,1.7127,1.7141,1.6959,1.6959,1.6959,0,1.6231,1.633,1.6342,1.6413,1.6451,1.644,1.6517,1.6552,1.6624,1.665,1.6626,1.6757,1.6792,1.6898,1.6927,1.6954,1.6974,1.6943,1.7071,1.7082,1.7093,1.7133,1.7149,1.6963,1.6962,1.6962,1.6962,0,1.638,1.6449,1.6504,1.6573,1.6617,1.6691,1.6712,1.6755,1.6756,1.6776,1.6865,1.6906,1.6972,1.6997,1.6999,1.7103,1.7089,1.7068,1.7025,1.7112,1.715,1.7165,1.6967,1.6966,1.6965,1.6964,0,0,1.6514,1.6588,1.6608,1.6639,1.6699,1.6751,1.6823,1.6888,1.6923,1.6972,1.7032,1.7121,1.7101,1.7138,1.7144,1.7192,1.7282,1.7165,1.7166,1.7184,1.7397,1.7413,1.743,1.7275,1.7278,1.728,1.7392,0,1.6628,1.6756,1.6768,1.6883,1.6945,1.6935,1.6997,1.7039,1.706,1.7114,1.7135,1.7198,1.7168,1.719,1.7236,1.7261,1.7325,1.7253,1.7329,1.7332,1.7317,1.745,1.7467,1.7571,1.7407,1.741,1.7412,0,1.6778,1.6831,1.6952,1.7001,1.7028,1.7084,1.7143,1.7196,1.7243,1.7254,1.7294,1.7293,1.7365,1.7319,1.7418,1.7369,1.7401,1.7417,1.7421,1.7429,1.7377,1.7461,1.7605,1.7621,1.7435,1.7433,1.7431,0,1.6862,1.6964,1.705,1.7076,1.7136,1.7175,1.7202,1.7246,1.7283,1.7334,1.7359,1.7417,1.745,1.7494,1.7508,1.7473,1.7606,1.7562,1.7616,1.7616,1.7645,1.7643,1.7796,1.7666,1.7666,1.7665,1.7665,0,1.6988,1.7062,1.7088,1.7141,1.7223,1.7234,1.7315,1.7339,1.7378,1.7433,1.7428,1.748,1.7495,1.7549,1.756,1.7639,1.7654,1.7664,1.7666,1.7665,1.7663,1.7686,1.7679,1.7669,1.7668,1.7668,1.7667,0,1.7096,1.7117,1.7209,1.7258,1.7271,1.733,1.737,1.742,1.7438,1.7509,1.7526,1.7554,1.7617,1.7635,1.7711,1.7718,1.7812,1.7807,1.7796,1.7796,1.785,1.7844,1.8023,1.8046,1.79,1.7901,1.7903,0,1.7175,1.7232,1.7286,1.7323,1.7351,1.7411,1.7449,1.7462,1.7501,1.7558,1.76,1.7663,1.7714,1.7815,1.7842,1.7899,1.7896,1.7954,1.7904,1.79,1.7896,1.7892,1.7897,1.7963,1.7965,1.7966,1.7967,0,1.7313,1.7319,1.7375,1.7434,1.7479,1.7526,1.7571,1.7601,1.762,1.7664,1.7729,1.7768,1.7845,1.7907,1.7965,1.799,1.7982,1.7982,1.7998,1.7997,1.7989,1.7993,1.7822,1.7979,1.7977,1.7977,1.7976,1.7976,1.7409,1.7458,1.7503,1.7565,1.76,1.7641,1.769,1.7713,1.7768,1.7832,1.7835,1.7905,1.7948,1.8025,1.8053,1.8107,1.809,1.8113,1.8118,1.8124,1.8128,1.798,1.8118,1.8117,1.8117,1.8117,1.8117,0,1.7545,1.7573,1.763,1.7692,1.774,1.7728,1.7776,1.7816,1.7878,1.7919,1.7969,1.8042,1.8101,1.8132,1.819,1.8227,1.8225,1.8242,1.8239,1.8245,1.8141,1.8121,1.8243,1.8243,1.8243,1.8243,1.8243,1.8243,1.7622,1.7704,1.7716,1.7815,1.7842,1.7911,1.7939,1.7977,1.801,1.8092,1.8141,1.8161,1.8197,1.8257,1.831,1.8317,1.8339,1.8359,1.8364,1.8266,1.8253,1.824,1.8222,1.8363,1.8364,1.8464,1.8465,1.8465]}]]